GFSSE_925_rhum_174.txt.gz
RH
77 83 85 84 82 75 74 85 87 80 72 72 72 73 67 65 64 58 56 70 86 84 85 88 84 87 92 93 85 88 95 76 61 57 80 87 72 80 82 89 88 90 96
75 76 78 85 84 79 74 74 88 88 81 75 76 75 72 64 61 54 64 58 71 87 86 89 81 87 94 90 90 95 88 70 60 56 66 69 67 67 75 88 85 96 94
70 76 93 81 73 80 79 78 75 79 84 85 83 86 83 71 66 55 71 72 66 71 88 85 79 85 89 84 88 84 78 66 58 66 72 78 66 63 70 77 80 91 91
69 77 74 73 78 82 83 83 82 78 77 81 84 89 89 88 81 64 57 81 86 77 86 85 88 82 80 75 86 82 72 64 58 64 71 71 71 63 71 84 86 87 92
63 71 78 82 82 88 89 88 87 84 82 79 78 80 81 88 92 87 65 59 82 82 86 86 90 84 74 74 78 81 72 64 59 67 67 60 60 55 79 86 88 88 88
50 57 87 88 83 84 86 87 88 89 86 85 82 80 79 78 82 87 88 74 54 70 84 88 92 91 75 67 76 81 72 64 59 66 62 62 66 70 80 88 83 78 84
42 44 44 65 86 90 89 88 86 85 84 83 84 84 82 80 80 81 83 86 82 58 75 84 90 92 85 69 75 78 71 64 60 68 65 59 60 68 64 83 79 80 77
41 40 43 39 40 49 67 82 88 88 86 86 83 81 81 80 80 80 78 82 85 84 69 70 82 90 90 80 70 80 74 67 64 59 63 59 62 67 70 78 85 87 77
37 36 35 36 35 36 38 38 41 51 65 73 81 85 84 82 79 79 79 78 81 82 83 80 77 79 88 88 77 78 84 81 72 66 65 61 63 65 64 79 89 91 76
31 30 32 33 33 34 33 31 32 31 33 32 34 43 58 73 79 83 82 80 81 80 80 82 82 80 80 84 87 79 80 85 85 69 63 63 62 63 70 81 85 88 87
31 31 32 35 35 34 31 27 29 34 34 33 37 36 37 39 45 51 69 87 86 85 83 82 83 83 82 80 82 86 82 79 83 80 67 64 63 62 65 88 84 87 87
29 30 32 35 35 32 33 32 29 33 33 33 34 34 34 36 36 38 40 39 50 62 82 87 90 89 91 87 84 84 90 86 79 81 79 67 62 62 64 63 89 89 88
27 31 36 39 40 41 40 35 39 38 35 35 34 32 34 36 32 34 36 38 41 52 60 70 88 90 92 92 89 90 87 86 86 81 74 70 62 60 64 63 78 85 84
28 34 37 46 46 49 50 46 47 45 44 41 41 39 37 38 36 35 34 32 31 34 44 58 67 74 93 97 95 88 83 85 86 84 74 68 62 60 62 67 72 85 86
35 37 42 50 53 54 51 54 54 53 52 50 49 49 48 45 43 40 37 34 33 33 33 35 40 62 69 81 88 89 87 87 88 85 74 71 65 61 63 64 82 90 92
36 40 46 52 54 52 56 59 59 59 59 58 58 59 58 55 53 52 49 46 40 36 34 32 33 34 40 59 68 74 83 84 85 85 82 77 72 70 63 63 70 86 88
36 42 50 55 55 58 59 59 56 58 59 61 61 61 61 62 63 63 62 61 56 50 43 38 36 34 33 33 42 57 74 77 79 82 83 84 81 76 74 71 67 70 80
44 53 57 61 63 63 54 49 48 48 52 54 58 57 62 65 68 70 71 70 67 63 56 51 45 42 39 37 36 37 47 63 66 78 80 80 82 83 81 78 76 71 71
47 56 58 63 60 56 50 44 42 42 45 48 43 52 58 60 68 72 76 76 73 69 65 60 57 50 47 45 41 40 39 41 50 67 75 83 86 84 86 84 82 78 74
51 58 62 58 55 54 49 45 42 39 39 40 42 44 43 54 49 47 59 71 75 73 70 64 60 57 55 52 50 48 44 41 42 47 55 66 73 76 74 81 84 84 84
57 62 60 56 55 51 50 46 43 40 40 42 40 41 46 42 43 47 50 51 56 69 72 70 65 61 58 56 56 52 48 46 44 42 38 40 50 64 76 74 68 77 79
55 60 59 57 55 53 53 50 44 41 40 40 41 45 41 44 55 70 72 75 74 70 69 74 70 68 64 60 62 61 69 55 48 49 47 45 42 40 49 62 69 72 82
50 55 57 56 57 57 56 50 43 39 37 39 40 37 42 60 72 74 75 77 78 78 77 75 78 73 70 65 62 67 75 76 66 51 51 51 48 48 48 48 50 60 73
48 52 56 58 62 62 56 53 45 43 45 43 42 42 53 71 74 75 80 82 84 85 86 78 83 77 70 71 66 63 61 60 66 69 54 53 53 54 52 50 46 56 67
44 49 56 62 64 65 62 58 46 42 44 43 44 49 70 74 75 80 86 86 84 85 84 88 87 80 71 71 71 69 65 62 61 63 66 55 53 54 53 52 53 52 49
43 49 55 61 65 66 63 59 48 42 44 47 46 61 72 78 78 85 86 89 85 85 84 85 86 83 74 73 72 71 70 73 72 73 77 73 70 61 58 57 55 54 52

GFSSE_925_rhum_177.txt.gz
RH
79 83 85 84 81 74 72 82 85 84 70 71 73 70 65 64 61 53 55 68 82 79 83 86 86 82 94 85 83 94 86 65 54 65 77 70 65 77 91 88 88 90 92
74 80 82 85 78 80 74 73 86 88 85 79 77 79 74 65 59 51 65 57 69 86 84 84 81 82 91 80 89 94 83 65 58 64 67 65 60 59 83 86 92 96 93
75 78 82 76 70 79 81 80 76 78 82 85 85 85 85 78 68 56 68 76 59 67 82 86 80 81 74 71 78 80 76 62 62 72 80 79 63 53 66 77 87 95 86
79 78 75 69 76 82 84 84 83 80 79 80 83 85 86 90 86 77 56 74 88 71 84 88 87 84 75 65 77 74 66 58 59 67 75 82 80 60 57 72 82 95 92
67 70 73 76 82 86 87 87 87 87 84 82 80 80 82 81 87 91 85 60 68 78 78 88 89 87 80 64 67 74 64 56 61 69 72 70 78 63 71 86 92 90 81
50 50 80 84 83 82 85 86 87 86 84 83 82 80 79 78 78 82 85 88 78 54 69 84 90 90 89 72 64 71 66 57 57 67 69 73 60 66 83 87 79 79 89
44 45 45 62 80 87 88 86 87 87 86 84 82 80 81 80 76 75 75 82 84 82 62 73 84 89 90 83 69 69 69 57 55 64 68 72 62 64 72 81 87 82 77
42 41 40 38 38 41 50 68 81 85 86 88 87 84 82 80 79 79 78 76 78 83 83 74 70 81 86 87 80 69 70 62 58 53 64 68 64 68 84 80 85 89 86
39 37 36 36 35 36 35 36 36 38 42 48 59 70 83 86 84 83 82 81 77 75 77 79 79 75 80 85 86 78 71 70 68 60 58 68 69 62 72 78 86 93 92
32 31 31 33 33 34 33 30 30 29 33 33 32 35 37 38 49 61 83 88 85 82 83 84 82 81 80 79 84 85 80 77 81 75 59 62 70 69 76 70 84 94 93
32 31 31 30 31 31 30 33 32 31 33 33 35 35 35 36 38 38 60 56 70 75 84 85 86 86 87 86 85 88 91 87 80 76 72 59 62 73 80 78 72 92 93
34 32 32 31 31 30 28 31 30 30 35 33 32 33 34 34 34 37 36 36 38 44 49 56 76 85 88 93 90 87 91 93 90 83 76 69 66 71 80 70 66 76 86
29 30 34 36 35 32 31 29 30 34 36 36 37 34 36 35 34 30 32 33 34 34 49 62 65 66 81 87 92 91 90 89 90 88 82 74 71 74 80 72 65 60 86
28 33 36 38 39 38 41 40 39 41 43 44 46 46 44 41 43 41 38 36 35 34 34 34 35 56 79 75 77 84 93 92 90 88 84 80 73 72 72 72 66 64 58
28 32 37 42 44 46 48 51 54 54 54 55 55 54 54 54 53 51 49 44 40 38 36 34 33 33 34 40 63 78 79 85 90 89 88 85 76 72 72 70 68 69 73
26 32 42 46 51 52 55 58 58 56 58 58 56 58 59 61 62 62 61 58 53 49 43 42 40 38 36 34 34 35 58 78 79 84 84 85 86 79 73 71 68 72 84
27 36 45 49 52 53 56 52 43 43 48 47 55 61 57 62 65 66 67 67 67 66 64 55 48 44 41 37 36 34 35 36 50 73 77 78 84 88 85 76 76 71 72
29 41 45 48 53 55 52 41 34 34 42 45 51 44 56 65 65 67 72 74 74 73 70 67 63 59 54 49 45 41 39 38 38 40 60 72 73 79 81 83 83 79 80
36 42 50 57 58 53 46 37 34 36 39 42 43 38 48 46 53 58 55 60 68 76 75 72 69 64 60 58 55 51 49 46 42 41 41 43 68 77 78 81 82 85 86
52 55 58 60 56 52 47 39 35 32 35 37 33 41 38 44 45 41 41 48 53 56 67 74 75 70 65 61 59 59 57 53 47 46 45 43 44 51 63 78 78 73 72
53 55 58 56 56 54 49 46 40 32 28 27 33 41 46 44 40 44 65 71 71 68 68 71 73 74 70 66 64 61 60 58 53 49 49 47 44 42 40 40 43 69 71
48 55 58 57 56 54 53 52 50 43 37 35 38 45 39 38 57 72 75 75 75 75 75 74 74 80 73 63 71 72 84 64 53 51 50 54 51 50 52 52 51 53 56
52 57 57 57 57 57 56 56 50 41 36 31 35 34 36 54 71 75 74 76 78 79 80 83 77 76 85 74 66 72 78 74 68 55 52 52 52 52 52 50 53 52 54
50 54 56 57 57 58 62 58 55 46 44 38 41 40 44 67 76 76 77 82 82 83 87 87 89 88 88 80 73 70 72 72 76 72 56 55 54 53 54 56 56 55 53
42 44 48 54 58 63 65 63 59 51 42 38 38 40 53 73 78 78 81 86 88 85 83 84 86 89 88 82 74 77 75 71 68 79 85 74 62 59 58 58 55 53 48
40 43 45 50 54 59 64 65 61 55 44 40 36 40 57 74 74 80 82 86 87 86 84 84 83 82 84 79 73 78 81 83 81 83 89 83 80 71 68 63 61 55 53

GFSSE_925_rhum_180.txt.gz
RH
80 84 87 87 85 74 72 87 88 86 74 74 75 75 68 61 59 54 55 74 80 77 80 88 86 81 80 76 88 92 76 60 58 79 74 63 62 82 86 90 88 90 90
78 80 82 86 82 82 75 77 87 90 87 83 80 83 79 66 57 52 66 56 76 90 81 83 84 73 74 70 89 89 76 61 63 75 76 69 64 64 83 91 91 94 88
76 76 82 76 72 80 81 79 77 78 81 85 86 85 86 85 74 54 58 72 57 67 79 86 91 80 70 62 68 74 74 64 69 75 77 74 64 59 68 82 88 96 85
80 80 74 75 74 81 84 83 83 82 80 79 81 85 86 86 90 86 65 59 80 66 82 88 90 84 79 64 64 64 65 64 65 73 78 82 82 77 59 79 87 89 80
70 72 77 75 78 85 87 86 86 86 86 82 80 76 75 78 78 90 90 82 57 70 76 82 89 88 85 75 62 64 59 57 63 71 78 77 78 83 79 86 95 96 76
53 55 77 79 80 83 87 87 87 88 87 85 83 82 79 77 77 76 79 83 85 74 53 72 87 91 90 86 69 63 59 53 58 68 71 72 75 80 82 89 75 86 84
45 46 46 64 78 85 88 87 88 88 87 86 84 85 84 84 78 78 78 78 77 82 81 63 75 83 88 90 82 69 67 57 53 65 68 73 73 81 84 91 90 90 95
42 43 42 40 39 41 44 53 66 75 80 85 89 90 90 86 82 81 80 80 80 79 80 82 75 73 82 84 87 80 71 66 57 53 64 68 70 80 85 92 87 87 89
41 39 37 37 36 37 36 36 34 34 34 36 36 41 50 68 73 78 86 85 83 80 82 85 83 83 80 81 84 86 81 75 70 59 56 63 70 70 85 90 93 93 92
36 33 32 33 34 34 34 32 31 31 31 34 33 35 38 38 38 41 57 71 84 88 86 85 86 85 85 84 85 86 89 85 81 75 70 61 66 72 84 83 85 89 90
32 32 32 31 30 29 30 32 32 32 31 31 33 34 35 35 36 37 39 49 44 43 40 46 61 84 88 87 86 86 87 94 90 85 79 68 63 66 83 85 81 79 89
38 35 33 32 31 30 28 27 30 30 33 35 34 34 34 34 35 35 35 35 35 36 38 42 52 61 75 88 88 87 88 88 91 92 86 78 72 68 86 84 85 74 71
31 34 33 34 35 34 31 32 36 36 39 40 41 41 41 40 38 36 33 32 32 34 34 36 48 64 64 84 85 85 86 90 91 90 89 86 79 74 83 81 86 78 70
30 30 33 38 38 39 39 41 42 43 46 48 49 50 50 48 46 45 45 43 41 38 37 36 36 35 35 36 47 77 87 86 87 87 88 86 84 84 81 76 81 80 75
30 32 34 36 37 40 38 40 45 48 50 51 53 54 57 58 58 58 56 53 50 48 45 42 40 38 36 34 34 35 37 62 88 86 83 81 81 90 85 74 80 89 79
27 30 30 34 38 41 38 44 50 48 48 50 47 53 58 58 60 60 61 62 62 62 61 58 54 49 45 43 39 36 35 36 36 42 69 84 85 87 85 80 83 87 90
24 27 34 42 46 44 45 48 40 33 36 41 45 51 46 56 64 65 64 67 70 72 71 69 66 63 59 53 51 46 43 41 39 39 42 56 69 81 81 79 83 87 91
26 34 46 49 49 47 50 46 38 35 37 40 43 44 40 52 49 50 56 57 61 64 71 75 73 71 67 64 60 57 54 50 46 43 41 42 42 53 76 81 79 82 89
34 52 56 53 50 50 46 44 36 35 36 41 42 37 41 41 43 45 44 42 45 51 55 68 75 76 74 68 64 62 59 58 56 53 50 48 46 45 47 63 80 81 78
55 52 45 43 49 51 50 45 38 31 29 28 31 37 41 43 42 38 42 59 67 68 64 58 68 72 75 72 69 66 63 59 56 55 52 47 45 44 44 45 44 44 59
44 44 50 54 53 55 53 48 43 36 31 26 25 35 46 41 37 55 70 73 74 73 74 76 77 73 73 70 69 66 66 58 55 55 52 52 55 53 52 52 51 51 49
51 49 54 53 54 56 55 54 53 51 39 32 28 33 32 37 58 72 75 75 75 77 75 75 82 83 78 72 79 77 88 65 63 57 55 54 51 50 50 50 51 54 55
45 52 56 57 58 57 58 59 58 53 45 36 30 29 29 45 68 76 76 77 79 81 84 88 88 93 99 81 79 78 84 81 75 59 56 55 57 56 56 55 57 56 54
45 46 50 56 58 58 61 62 62 59 55 44 38 35 32 52 74 77 78 80 86 86 85 85 86 88 95 96 84 76 76 80 85 91 65 63 61 63 60 58 57 55 54
41 40 42 45 49 52 57 61 65 64 60 50 40 35 32 49 71 70 80 82 86 87 86 86 84 84 88 95 91 80 77 81 77 92 92 84 76 72 68 67 64 60 54
36 41 44 48 47 47 52 56 63 64 62 55 43 36 33 44 65 66 80 83 84 84 85 85 86 86 85 85 76 74 77 89 90 91 90 86 89 77 73 68 63 60 56

GFSSE_925_rhum_183.txt.gz
RH
82 83 85 85 85 76 75 87 86 84 75 74 75 76 68 59 53 47 54 77 80 86 90 88 77 69 64 76 88 87 72 58 84 81 70 69 79 83 88 88 87 89 90
78 81 81 87 86 84 78 79 87 88 86 82 79 81 80 68 57 49 62 54 76 86 82 91 88 75 62 76 87 84 74 59 68 75 70 69 70 86 85 92 91 89 82
78 77 76 81 75 77 83 81 78 80 82 83 85 86 84 83 80 64 53 69 58 65 77 90 94 86 73 57 68 70 74 61 69 75 74 72 64 76 81 85 89 96 91
77 70 68 74 73 77 84 85 85 84 82 80 81 82 82 83 86 86 79 54 72 69 63 88 91 90 83 71 58 65 69 63 68 75 78 80 77 80 81 76 88 89 80
77 73 74 76 78 83 87 90 89 89 89 87 84 81 80 78 77 86 87 86 73 60 75 77 86 91 88 84 68 63 67 66 64 69 75 77 74 75 86 87 94 95 77
63 61 73 80 81 84 88 90 90 90 88 88 87 86 83 81 78 78 79 81 81 83 72 56 76 90 91 89 85 68 65 65 66 70 74 75 68 72 88 90 77 85 84
48 47 50 67 78 84 88 90 90 91 90 90 90 88 89 86 84 84 83 84 80 79 82 82 67 75 91 90 91 83 69 64 63 62 71 73 71 73 92 90 88 87 96
44 44 44 42 41 42 43 45 48 52 56 63 68 75 83 90 90 87 86 86 85 84 82 82 84 81 80 83 87 88 83 73 68 58 60 68 71 72 91 89 94 94 95
42 40 40 39 38 38 37 37 36 34 34 35 36 35 35 40 47 47 57 74 87 91 92 87 84 86 86 84 84 85 85 84 77 70 61 59 61 71 79 90 82 92 91
39 37 34 33 33 33 32 32 32 33 32 32 34 35 37 38 38 39 40 50 65 60 66 75 79 89 90 89 87 84 84 90 87 80 75 68 65 66 76 90 87 95 94
34 33 32 32 32 31 30 28 29 31 32 32 33 34 34 34 36 36 37 38 38 40 40 40 43 49 59 79 91 91 87 88 86 87 82 77 76 75 74 87 86 90 91
38 36 35 34 33 32 32 29 27 28 30 33 35 36 35 36 35 36 36 35 34 35 35 36 39 48 60 72 79 91 95 92 91 88 87 83 82 79 94 94 77 86 86
33 33 35 34 33 33 34 31 28 30 32 35 38 39 39 39 39 39 39 38 36 34 33 34 35 37 44 44 56 84 91 95 94 93 92 90 86 82 83 92 91 76 88
29 29 32 32 34 37 38 35 34 36 42 46 49 52 52 51 49 48 49 48 47 47 45 42 38 38 36 37 36 37 45 59 78 96 90 82 85 86 79 81 87 88 82
28 27 31 35 40 41 41 38 40 46 48 49 51 51 55 56 55 55 58 60 61 61 61 60 57 51 44 41 39 39 38 38 39 50 73 82 84 84 86 84 86 95 90
22 23 34 38 41 43 43 41 45 43 36 37 41 46 54 51 56 61 61 59 62 67 69 70 71 68 64 59 50 46 45 42 41 40 44 47 56 75 84 83 83 89 95
27 26 37 43 46 46 44 44 44 37 35 34 40 45 45 46 54 53 52 52 54 56 59 61 68 70 70 68 65 60 55 50 48 45 44 42 41 43 47 74 86 90 91
31 37 42 50 49 45 47 46 44 37 34 36 37 39 40 43 45 45 44 44 42 42 44 49 59 70 73 73 69 64 61 59 57 54 50 47 46 48 46 47 69 80 82
43 46 49 48 50 54 51 49 47 40 35 32 33 29 31 35 41 44 40 43 56 62 64 65 58 64 71 74 73 70 66 63 59 57 56 53 48 48 46 45 44 47 60
53 51 50 50 52 52 49 50 46 42 37 36 31 31 36 42 41 35 50 69 72 72 68 65 69 69 69 71 75 67 64 60 58 58 57 56 53 53 52 52 49 46 44
49 51 53 54 54 55 57 54 47 51 49 38 31 34 40 32 33 48 64 74 74 73 74 73 74 81 73 70 76 68 62 61 61 59 57 56 55 53 52 51 51 53 54
45 48 39 48 55 58 59 57 59 57 53 47 35 28 31 32 43 64 74 76 78 77 77 82 89 96 90 84 86 88 87 68 66 57 58 59 58 57 57 57 57 58 58
43 44 39 41 51 56 58 59 61 61 57 55 46 37 30 32 53 73 77 79 82 85 84 85 87 94 96 89 86 87 91 95 81 68 59 63 62 62 62 59 59 58 56
39 44 41 42 49 53 57 60 63 64 64 61 57 46 36 33 58 75 77 82 85 87 86 87 88 89 95 99 88 82 78 81 89 94 72 69 72 65 63 64 64 60 58
32 32 34 42 46 48 55 62 63 62 63 64 61 52 40 32 45 68 72 83 86 86 86 88 87 88 91 94 96 93 70 72 81 91 92 87 80 76 71 70 62 59 58
32 32 33 36 36 38 50 56 62 64 62 66 63 56 43 34 32 48 66 77 83 84 83 84 87 84 87 94 96 86 84 85 84 85 76 81 92 82 75 70 66 61 59

GFSSE_925_rhum_189.txt.gz
RH
88 88 86 84 84 84 76 82 89 86 84 78 76 78 77 65 52 46 51 68 83 85 92 91 82 78 60 74 89 84 69 77 78 69 64 60 81 89 85 80 86 90 91
82 84 83 83 80 84 84 79 81 89 88 87 83 82 82 82 79 60 47 59 59 80 86 97 92 84 73 77 84 78 72 61 71 69 67 58 61 87 91 87 89 92 91
84 83 82 82 78 76 82 84 84 81 82 83 82 82 88 90 89 88 84 60 64 67 68 85 92 97 91 78 64 73 76 61 71 71 70 58 62 59 83 90 91 87 87
85 85 80 78 77 80 86 90 90 90 90 91 92 90 89 90 89 89 89 93 88 68 81 69 73 88 95 89 82 66 70 68 67 73 76 76 69 65 65 68 86 86 90
84 78 76 73 78 83 87 89 90 91 92 92 92 91 91 90 89 88 91 88 82 86 87 73 69 75 90 92 90 84 72 73 65 68 72 72 71 69 69 84 77 93 85
71 59 59 71 78 81 83 84 85 86 87 87 86 86 86 90 91 88 87 85 82 82 80 82 88 79 67 86 91 90 88 80 73 81 67 72 73 70 70 92 77 74 75
53 47 46 47 51 54 55 56 56 55 54 54 54 55 53 53 58 75 83 81 84 84 83 83 81 80 86 83 82 86 86 86 94 90 64 68 70 70 70 93 93 70 84
48 45 44 42 42 41 41 40 39 39 37 36 36 36 37 37 38 39 44 47 55 72 85 88 86 84 82 83 84 83 85 89 88 95 71 62 62 69 71 92 96 96 77
46 45 42 39 37 35 34 31 30 29 29 30 31 32 32 33 35 37 38 39 40 42 56 59 67 82 85 87 87 84 84 86 97 97 83 73 61 60 68 74 75 96 97
44 42 40 38 34 34 33 32 31 30 29 28 28 30 32 33 34 35 36 37 38 38 38 39 41 42 46 52 62 73 88 88 96 99 97 92 78 73 64 76 76 83 95
42 40 38 36 35 36 35 34 33 31 29 28 28 31 32 33 35 35 35 38 39 37 36 36 36 38 38 42 49 56 64 88 88 99 100 90 86 84 83 87 80 70 91
37 36 41 41 40 38 38 37 34 31 30 31 34 37 39 41 44 47 46 43 41 42 40 38 35 34 35 38 42 51 61 72 90 98 99 91 90 90 97 98 93 89 75
26 28 32 33 36 40 39 38 34 33 33 36 38 40 42 44 45 45 48 55 57 54 52 50 45 40 36 35 37 39 42 50 74 98 100 99 92 94 99 100 98 99 96
28 25 25 30 37 42 42 39 38 37 37 37 35 35 36 38 43 47 46 47 53 57 58 57 58 56 52 48 42 39 40 40 42 69 84 83 93 90 100 99 95 98 95
34 30 31 28 39 46 44 43 43 41 40 36 33 33 38 40 42 44 47 47 44 47 46 45 48 53 57 57 56 53 45 41 40 40 46 42 44 50 60 71 94 97 98
37 34 32 38 48 48 46 45 43 43 41 37 34 34 36 37 39 40 41 44 42 36 37 39 39 42 49 59 59 59 57 54 49 45 42 40 40 40 42 46 69 82 87
47 42 44 49 49 48 48 47 45 46 44 38 32 32 32 30 29 36 40 40 42 45 49 45 45 44 44 48 59 57 60 60 58 56 54 50 46 42 41 40 43 54 51
53 51 50 51 51 49 47 47 47 47 43 38 35 30 27 35 31 35 39 37 50 64 67 68 63 65 67 65 62 59 62 61 60 60 59 58 57 55 49 46 48 46 45
50 50 49 50 50 50 50 51 52 49 47 46 41 36 25 37 32 27 33 46 63 71 71 71 71 72 75 75 74 68 70 69 67 63 60 59 58 58 58 55 51 48 48
47 47 48 48 50 52 54 54 53 48 49 51 49 42 31 28 25 28 44 62 68 73 75 78 81 86 84 85 83 75 71 66 64 64 62 64 63 64 62 60 58 58 58
39 43 45 44 47 51 54 56 51 50 52 53 54 49 43 34 29 31 49 69 70 76 81 85 90 96 89 94 90 76 75 72 70 68 69 69 66 65 63 63 62 61 58
34 34 36 40 43 48 54 59 60 58 56 55 56 57 53 44 31 40 58 65 72 79 84 87 92 95 89 97 92 87 70 64 72 68 72 72 67 66 61 59 60 61 62
34 33 33 32 32 34 45 55 60 61 59 58 57 61 61 52 35 35 55 59 68 80 86 89 90 97 93 91 99 90 72 73 66 74 76 77 76 75 75 69 65 61 58
36 36 37 36 36 35 37 42 55 65 69 62 63 64 64 59 41 32 46 54 66 80 83 85 90 91 98 97 95 92 88 73 73 71 70 72 71 71 77 78 74 64 62
36 37 37 37 36 35 38 40 46 54 60 67 68 68 67 63 49 34 36 47 62 75 78 84 81 84 87 98 99 96 89 70 71 72 74 63 66 67 73 77 76 73 66
38 36 36 37 34 35 39 40 44 48 51 60 62 69 69 66 56 38 32 36 56 64 72 78 81 79 84 84 92 94 94 77 69 76 77 67 68 64 67 70 71 70 67